Content
SEND FEEDBACK

Daily
Averages
Monthly
Summary
United States of America

CAYEY, PUERTO RICO


Home > North America > United States > Puerto Rico
Elevation: 140 feet     Latitude: 18 08N     Longitude: 066 09W

WEATHER
 
SELECT A DAY
Number of Records: 164,379;   Date Range: 7/1/96 - 8/28/14
 
SHARE

PRINT THIS DATA

[ ← Previous Day ]
WEATHER ALMANAC - JANUARY 23, 2013
[ Next Day → ]
[ °C ]   °F
Weather ElementAverageHighLow
Temperature78.6 °F86 °F (12:56 pm)73.9 °F (1:56 am)
Dewpoint70.3 °F71.1 °F (3:56 am)68 °F (10:56 am)
Humidity76.1 %87 % (1:56 am)58 % (10:56 am)
Barometer30.07 in30.13 in (9:56 am)30.03 in (2:56 pm)
Wind Speed7 mph18.4 mph (1:56 pm)
Wind Gust25.3 mph (2:56 pm)
Weather ElementAverage
Visibility10 mi
Wind DirectionENE (69.6 °)

Weather ElementTotal
Precipitation0.01 in
Cooling Degree Days15 (Base 65)
Growing Degree Days30 (Base 50)
Averaged from 23 records on January 23, 2013
WEATHER CONDITIONS BREAKOUT
WIND DIRECTION BREAKOUT
WEATHER BY HOUR - JANUARY 23, 2013
[ °C ]   °F
Local TimeTemperatureDewpointHumidityBarometerVisibilityWind DirectionWind SpeedGust SpeedPrecipitationEventsConditions
1:56 AM73.9 °F70.0 °F87 %30.06 in10.0 miCalmPartly Cloudy
2:56 AM73.9 °F69.1 °F85 %30.04 in10.0 miCalmMostly Cloudy
3:56 AM75.0 °F71.1 °F87 %30.05 in10.0 miCalm0.00 inMostly Cloudy
4:56 AM75.0 °F70.0 °F84 %30.06 in10.0 miSSW (210°)4.6 mphMostly Cloudy
5:56 AM75.0 °F70.0 °F84 %30.06 in10.0 miCalm0.00 inMostly Cloudy
6:56 AM75.0 °F70.0 °F84 %30.07 in10.0 miCalmMostly Cloudy
7:56 AM75.9 °F70.0 °F82 %30.09 in10.0 miCalm0.01 inMostly Cloudy
8:56 AM78.1 °F71.1 °F79 %30.12 in10.0 miCalmMostly Cloudy
9:56 AM81.0 °F71.1 °F72 %30.13 in10.0 miESE (110°)9.2 mphMostly Cloudy
10:56 AM84.0 °F68.0 °F58 %30.11 in10.0 miESE (110°)9.2 mphPartly Cloudy
11:56 AM84.9 °F69.1 °F59 %30.09 in10.0 miESE (110°)11.5 mphPartly Cloudy
12:56 PM86.0 °F71.1 °F61 %30.06 in10.0 miENE (70°)16.1 mphPartly Cloudy
1:56 PM82.9 °F70.0 °F65 %30.04 in10.0 miENE (60°)18.4 mphScattered Clouds
2:56 PM84.0 °F71.1 °F65 %30.03 in10.0 miENE (60°)18.4 mph25.3 mphScattered Clouds
3:56 PM81.0 °F70.0 °F69 %30.03 in10.0 miEast (80°)12.7 mphScattered Clouds
4:56 PM81.0 °F71.1 °F72 %30.03 in10.0 miEast (80°)12.7 mphPartly Cloudy
5:56 PM80.1 °F71.1 °F74 %30.04 in10.0 miEast (80°)11.5 mphPartly Cloudy
6:56 PM78.1 °F71.1 °F79 %30.05 in10.0 miEast (80°)9.2 mphPartly Cloudy
7:56 PM77.0 °F71.1 °F82 %30.07 in10.0 miEast (90°)6.9 mphPartly Cloudy
8:56 PM77.0 °F71.1 °F82 %30.09 in10.0 miEast (100°)4.6 mphPartly Cloudy
9:56 PM77.0 °F71.1 °F82 %30.10 in10.0 miSE (130°)4.6 mphPartly Cloudy
10:56 PM75.9 °F69.1 °F79 %30.09 in10.0 miSE (130°)5.8 mphPartly Cloudy
11:56 PM75.9 °F69.1 °F79 %30.08 in10.0 miEast (100°)5.8 mphScattered Clouds
Hourly data recorded from TJIG, located miles away from Cayey, Puerto Rico







STORIES FROM OUR PARTNERS